Flag for U.S.A. Weather past 2 weeks in Compton, California, U.S.A.

Now
69 °F

Clear.


Feels Like: 69 °F
Forecast: 65 / 80 °F
Wind: 3 mph from West

Location: Hawthorne Municipal Airport

Current Time: Aug 22, 2014 at 1:17:32 AM

Latest Report: Aug 22, 2014 at 12:53 AM


Visibility: 10 mi

Pressure: 29.95 "Hg

Humidity: 79%

Dew point: 62 °F

Location of ComptonLocation

Historic Weather in Compton — Graph

°F

Compton temperature yesterday

Maximum temperature yesterday: 76 °F (at 2:53 PM)
Minimum temperature yesterday: 67 °F (at 4:53 AM)
Average temperature yesterday: 71 °F

Past Weeks' High & Low Weather Summary

 TemperatureHumidityPressure
High81 °F (Aug 16, 11:53 AM)94% (Aug 15, 3:53 AM)30.01 "Hg (Aug 15, 3:53 AM)
Low64 °F (Aug 15, 3:53 AM)44% (Aug 16, 3:53 PM)29.79 "Hg (Aug 18, 4:53 PM)
Average71 °F73%29.93 "Hg
* Reported Aug 6 11:53 PM — Aug 21 11:53 PM, Compton, Weather by CustomWeather, © 2014

Note: Actual official high and low records may vary slightly from our data, if they occured in-between our weather recording intervals... More about our weather records

Advertising

Compton weather history for previous 24 hours

 ConditionsComfort  
Time TempWeatherWind HumidityBarometerVisibility
11:53 PM
Aug 21
69 °FClear.No wind79%29.96 "Hg10 mi
10:53 PM69 °FClear.No wind81%29.96 "Hg10 mi
9:53 PM70 °FClear.8 mph81%29.95 "Hg10 mi
8:53 PM70 °FClear.7 mph79%29.94 "Hg10 mi
7:53 PM71 °FSunny.6 mph76%29.92 "Hg10 mi
6:53 PM74 °FSunny.10 mph71%29.90 "Hg10 mi
5:53 PM74 °FSunny.9 mph71%29.89 "Hg10 mi
4:53 PM74 °FSunny.13 mph69%29.89 "Hg10 mi
3:53 PM75 °FSunny.13 mph66%29.90 "Hg10 mi
2:53 PM76 °FSunny.14 mph62%29.91 "Hg10 mi
1:53 PM75 °FSunny.12 mph64%29.93 "Hg10 mi
12:53 PM75 °FSunny.8 mph64%29.95 "Hg10 mi
11:53 AM75 °FSunny.12 mph64%29.96 "Hg10 mi
10:53 AM73 °FPassing clouds.7 mph69%29.96 "Hg10 mi
9:53 AM72 °FScattered clouds.6 mph71%29.96 "Hg10 mi
8:53 AM71 °FPartly sunny.5 mph73%29.96 "Hg10 mi
7:53 AM69 °FOvercast.5 mph79%29.94 "Hg10 mi
6:53 AM68 °FOvercast.3 mph78%29.93 "Hg10 mi
5:53 AM67 °FPassing clouds.3 mph81%29.92 "Hg10 mi
4:53 AM67 °FPassing clouds.No wind81%29.91 "Hg10 mi
3:53 AM68 °FClear.3 mph82%29.92 "Hg10 mi
2:53 AM68 °FClear.3 mph78%29.92 "Hg10 mi
1:53 AM68 °FClear.3 mph78%29.92 "Hg10 mi
Weather by CustomWeather, © 2014

See weather overviewHow to use our weather pages